Lemur-2 Balto

operational
NORAD ID: 63395 Int'l Des: 2025-052 Owner: SPIRE Country: US Constellation: spire
LEOCIRCULARRETROGRADESSO

About Lemur-2 Balto

Description loading...

Live Position

Loading 3D Globe...

Upcoming Passes

Altitude History

Altitude vs Time

uPlot chart will show altitude changes over time

Two-Line Element Set

1 63395U 25052BH 26061.15121184 .00007273 00000-0 60784-3 0 9995
2 63395 97.7012 316.0665 0003286 21.5767 338.5594 14.98802509 52727
Epoch: Mar 2, 2026 • Age: 30 hours

Current Status

Altitude 585.8 km
Velocity 7.56 km/s
Sub-Earth Point -34.49°S, 122.48°W
Launch Date Mar 15, 2025
Age 0.9 years
Type other

Technical Details

Classification Payload
Mass 10.00 kg
Dry Mass 10.00 kg
Total Mass 10.00 kg
Length 0.30 m
Diameter 0.20 m
Span 0.30 m
Shape Box
Manufacturer SPIREG/WINGB
Bus Type Cubesat 6U
Phase Status In Orbit
Owner/State SPIRE/US

Large Constellations

Loading constellations...